{"data":{"norad_id":47274,"intl_designator":"2020-100S","name":"ONEWEB-0128","alt_names":[],"object_type":"PAYLOAD","status":"ACTIVE","operator":null,"country":"UK","launch_date":"2020-12-18","launch_site_code":"VOSTO","launch_vehicle":null,"mission":null,"orbit_class":"UNKNOWN","rcs_meters":null,"size_class":null,"mass_kg":null,"dimensions":null,"purposes":["comms"],"wikipedia_slug":null,"has_3d_model":false,"image_url":null,"decayed_at":null,"tle_current":{"epoch":"2026-09-20T04:11:26.471616Z","epoch_age_seconds":42574,"freshness":"FRESH","line1":"1 47274U 20100S   26263.17461194  .00000373  00000+0  10014-2 0  9999","line2":"2 47274  87.8973 331.8192 0001966  90.3990 269.7364 13.12444378277209","mean_motion":13.12444378,"eccentricity":0.0001966,"inclination_deg":87.8973,"raan_deg":331.8192,"arg_perigee_deg":90.399,"mean_anomaly_deg":269.7364,"bstar":0.0010014,"rev_number":27720,"period_min":109.71893545648,"perigee_km":1212.225418313,"apogee_km":1215.2105356899,"semimajor_km":7591.8549770014,"source":"CELESTRAK","updated_at":"2026-09-20T09:00:44.579247Z"}}}